Time,TemperatureF,DewpointF,PressureIn,WindDirection,WindDirectionDegrees,WindSpeedMPH,WindSpeedGustMPH,Humidity,HourlyPrecipIn,Conditions,Clouds,dailyrainin,SoftwareType,DateUTC
2013-09-22 00:12:00,56.0,41.0,-100.00,SSW,196,0.0,0.0,58,0.00,,,0.00,,2013-09-22 06:12:00,
2013-09-22 00:22:00,56.0,42.0,-100.00,ENE,76,0.0,0.0,59,0.00,,,0.00,,2013-09-22 06:22:00,
2013-09-22 00:42:00,56.0,42.0,-100.00,WNW,284,0.0,0.0,60,0.00,,,0.00,,2013-09-22 06:42:00,
2013-09-22 00:52:00,55.0,42.0,-100.00,West,268,0.0,0.0,61,0.00,,,0.00,,2013-09-22 06:52:00,
2013-09-22 01:02:00,55.0,42.0,-100.00,West,268,0.0,0.0,61,0.00,,,0.00,,2013-09-22 07:02:00,
2013-09-22 01:21:00,55.0,41.0,-100.00,SSE,150,0.0,0.0,60,0.00,,,0.00,,2013-09-22 07:21:00,
2013-09-22 01:32:00,55.0,41.0,-100.00,SSE,150,0.0,0.0,60,0.00,,,0.00,,2013-09-22 07:32:00,
2013-09-22 01:52:00,54.0,41.0,-100.00,SE,124,0.0,0.0,62,0.00,,,0.00,,2013-09-22 07:52:00,
2013-09-22 02:03:00,54.0,41.0,-100.00,SE,124,0.0,0.0,62,0.00,,,0.00,,2013-09-22 08:03:00,
2013-09-22 02:22:00,54.0,42.0,-100.00,ENE,64,0.0,0.0,63,0.00,,,0.00,,2013-09-22 08:22:00,
2013-09-22 02:42:00,54.0,42.0,-100.00,WNW,296,0.0,0.0,65,0.00,,,0.00,,2013-09-22 08:42:00,
2013-09-22 02:52:00,54.0,43.0,-100.00,SW,220,0.0,0.0,66,0.00,,,0.00,,2013-09-22 08:52:00,
2013-09-22 03:01:00,54.0,43.0,-100.00,SW,220,0.0,0.0,66,0.00,,,0.00,,2013-09-22 09:01:00,
2013-09-22 03:11:00,54.0,43.0,-100.00,SW,220,0.0,0.0,66,0.00,,,0.00,,2013-09-22 09:11:00,
2013-09-22 03:43:00,53.0,44.0,-100.00,ESE,117,0.0,0.0,74,0.00,,,0.00,,2013-09-22 09:43:00,
2013-09-22 04:12:00,52.0,45.0,-100.00,South,171,0.0,0.0,78,0.00,,,0.00,,2013-09-22 10:12:00,
2013-09-22 04:44:00,52.0,44.0,-100.00,North,11,0.0,0.0,75,0.00,,,0.00,,2013-09-22 10:44:00,
2013-09-22 05:12:00,53.0,44.0,-100.00,South,181,0.0,0.0,71,0.00,,,0.00,,2013-09-22 11:12:00,
2013-09-22 05:42:00,54.0,43.0,-100.00,South,178,0.0,0.0,66,0.00,,,0.00,,2013-09-22 11:42:00,
2013-09-22 06:12:00,54.0,44.0,-100.00,South,184,0.0,0.0,67,0.00,,,0.00,,2013-09-22 12:12:00,
2013-09-22 06:42:00,53.0,43.0,-100.00,South,182,0.0,0.0,68,0.00,,,0.00,,2013-09-22 12:42:00,
2013-09-22 06:52:00,53.0,43.0,-100.00,South,182,0.0,0.0,68,0.00,,,0.00,,2013-09-22 12:52:00,
2013-09-22 07:12:00,52.0,44.0,-100.00,SW,234,0.0,0.0,72,0.00,,,0.00,,2013-09-22 13:12:00,
2013-09-22 07:42:00,52.0,44.0,-100.00,SSE,162,0.0,0.0,72,0.00,,,0.00,,2013-09-22 13:42:00,
2013-09-22 08:11:00,52.0,44.0,-100.00,West,264,0.0,0.0,76,0.00,,,0.00,,2013-09-22 14:11:00,
2013-09-22 08:42:00,51.0,44.0,-100.00,SSW,198,0.0,0.0,76,0.00,,,0.00,,2013-09-22 14:42:00,
2013-09-22 09:12:00,52.0,44.0,-100.00,WNW,294,0.0,0.0,74,0.00,,,0.00,,2013-09-22 15:12:00,
2013-09-22 09:44:00,53.0,45.0,-100.00,NW,325,0.0,0.0,73,0.00,,,0.00,,2013-09-22 15:44:00,
2013-09-22 10:13:00,55.0,44.0,-100.00,SSW,192,0.0,0.0,67,0.00,,,0.00,,2013-09-22 16:13:00,
2013-09-22 10:43:00,56.0,45.0,-100.00,SSW,209,0.0,0.0,67,0.00,,,0.00,,2013-09-22 16:43:00,
2013-09-22 11:12:00,58.0,45.0,-100.00,SSE,165,0.0,0.0,62,0.00,,,0.00,,2013-09-22 17:12:00,
2013-09-22 11:42:00,59.0,45.0,-100.00,South,184,0.0,0.0,59,0.00,,,0.00,,2013-09-22 17:42:00,
2013-09-22 12:13:00,62.0,45.0,-100.00,South,182,0.0,0.0,55,0.00,,,0.00,,2013-09-22 18:13:00,
2013-09-22 12:42:00,62.0,45.0,-100.00,South,172,0.0,0.0,54,0.00,,,0.00,,2013-09-22 18:42:00,
2013-09-22 13:11:00,61.0,44.0,-100.00,WSW,243,0.0,0.0,55,0.00,,,0.00,,2013-09-22 19:11:00,
2013-09-22 13:42:00,56.0,48.0,-100.00,NW,308,0.0,0.0,75,0.00,,,0.01,,2013-09-22 19:42:00,
2013-09-22 14:12:00,59.0,48.0,-100.00,WNW,294,0.0,0.0,68,0.00,,,0.01,,2013-09-22 20:12:00,
2013-09-22 14:22:00,64.0,43.0,-100.00,SSW,193,0.0,0.0,46,0.00,,,0.01,,2013-09-22 20:22:00,
2013-09-22 14:33:00,64.0,43.0,-100.00,SSW,193,0.0,0.0,46,0.00,,,0.01,,2013-09-22 20:33:00,
2013-09-22 14:42:00,64.0,43.0,-100.00,SSW,193,0.0,0.0,46,0.00,,,0.01,,2013-09-22 20:42:00,
2013-09-22 15:12:00,63.0,43.0,-100.00,South,175,0.0,0.0,47,0.00,,,0.01,,2013-09-22 21:12:00,
2013-09-22 15:44:00,63.0,43.0,-100.00,South,184,0.0,0.0,49,0.00,,,0.01,,2013-09-22 21:44:00,
2013-09-22 16:14:00,63.0,43.0,-100.00,South,182,0.0,0.0,48,0.00,,,0.01,,2013-09-22 22:14:00,
2013-09-22 16:24:00,64.0,42.0,-100.00,South,178,0.0,0.0,44,0.00,,,0.01,,2013-09-22 22:24:00,
2013-09-22 16:30:00,65.0,41.0,-100.00,SW,224,0.0,0.0,43,0.00,,,0.01,,2013-09-22 22:30:00,
2013-09-22 16:34:00,64.0,42.0,-100.00,South,178,0.0,0.0,44,0.00,,,0.01,,2013-09-22 22:34:00,
2013-09-22 16:43:00,64.0,42.0,-100.00,South,178,0.0,0.0,44,0.00,,,0.01,,2013-09-22 22:43:00,
2013-09-22 16:53:00,64.0,41.0,-100.00,South,182,0.0,0.0,42,0.00,,,0.01,,2013-09-22 22:53:00,
2013-09-22 17:03:00,64.0,41.0,-100.00,South,182,0.0,0.0,42,0.00,,,0.01,,2013-09-22 23:03:00,
2013-09-22 17:12:00,64.0,41.0,-100.00,South,182,0.0,0.0,42,0.00,,,0.01,,2013-09-22 23:12:00,
2013-09-22 17:22:00,65.0,41.0,-100.00,SW,224,0.0,0.0,43,0.00,,,0.01,,2013-09-22 23:22:00,